Weather History for Burlington, CO

Change the Weather History Date:

Wednesday, May 14, 2014

  Actual Average Record
Temperature  
Mean Temperature 47 °F 58 °F  
Max Temperature 63 °F 72 °F 93 °F (2013)
Min Temperature 30 °F 44 °F 28 °F (1953)
Degree Days  
Heating Degree Days 20    
Moisture  
Dew Point 29 °F    
Average Humidity 55    
Maximum Humidity 85    
Minimum Humidity 25    
Precipitation  
Precipitation T in 0.07 in 2.10 in (1985)
Month to date precipitation 0.29 1.07  
Year to date precipitation 1.63 4.22  
Sea Level Pressure  
Sea Level Pressure 30.31 in    
Wind  
Wind Speed 11 mph (NW)    
Max Wind Speed 25 mph    
Max Gust Speed 43 mph    
Visibility 10 miles    
Events      
T = Trace of Precipitation, MM = Missing Value Source: NWS Daily Summary

Daily Weather History Graph

Daily Weather History Graph

Search for Another Location

Airport:

Trip Planner

Search our weather history database for the weather conditions in past years. The results will help you decide how hot, cold, wet, or windy it might be!

Date:

Astronomy

May. 14, 2014 Rise Set
Actual Time 5:36 AM MDT 7:54 PM MDT
Civil Twilight 5:06 AM MDT 8:25 PM MDT
Nautical Twilight 4:29 AM MDT 9:02 PM MDT
Astronomical Twilight 3:48 AM MDT 9:43 PM MDT
Moon 8:02 PM MDT (5/14) 5:36 AM MDT (5/14)
Length of Visible Light 15h 18m
Length of Day
14h 18m
Full, 100% of the Moon is Illuminated
May 14
Full
May 14
Full
May 21
Last Quarter
May 28
New
Jun 5
First Quarter

Hourly Weather History & Observations

Time (MDT) Temp. Windchill Dew Point Humidity Pressure Visibility Wind Dir Wind Speed Gust Speed Precip Events Conditions
12:53 AM 32.0 °F 24.8 °F 28.0 °F 85% 30.41 in 10.0 mi West 8.1 mph - N/A   Clear
1:53 AM 32.0 °F 23.0 °F 28.0 °F 85% 30.40 in 10.0 mi West 11.5 mph - N/A   Clear
2:53 AM 33.1 °F 25.5 °F 28.0 °F 82% 30.40 in 10.0 mi West 9.2 mph - N/A   Clear
3:53 AM 30.9 °F 23.5 °F 27.0 °F 85% 30.39 in 10.0 mi West 8.1 mph - N/A   Clear
4:53 AM 30.0 °F 23.2 °F 26.1 °F 85% 30.39 in 10.0 mi West 6.9 mph - N/A   Clear
5:53 AM 30.9 °F 22.8 °F 27.0 °F 85% 30.38 in 10.0 mi West 9.2 mph - N/A   Clear
6:53 AM 35.1 °F 27.9 °F 30.0 °F 82% 30.38 in 10.0 mi West 9.2 mph - N/A   Clear
7:53 AM 45.0 °F 39.7 °F 33.1 °F 63% 30.35 in 10.0 mi WNW 10.4 mph - N/A   Clear
9:53 AM 54.0 °F - 30.9 °F 41% 30.34 in 10.0 mi NNW 13.8 mph 18.4 mph N/A   Partly Cloudy
10:53 AM 55.9 °F - 24.1 °F 29% 30.34 in 10.0 mi North 12.7 mph 21.9 mph N/A   Mostly Cloudy
11:53 AM 55.9 °F - 25.0 °F 30% 30.34 in 10.0 mi NNW 18.4 mph 23.0 mph N/A   Overcast
12:12 PM 53.1 °F - 28.9 °F 40% 30.34 in 10.0 mi NE 19.6 mph 35.7 mph N/A   Overcast
12:26 PM 52.0 °F - 30.0 °F 43% 30.34 in 10.0 mi ENE 12.7 mph - N/A   Mostly Cloudy
12:53 PM 59.0 °F - 30.0 °F 33% 30.29 in 10.0 mi NNW 10.4 mph 17.3 mph N/A   Partly Cloudy
1:31 PM 59.0 °F - 27.0 °F 29% 30.30 in 10.0 mi NNE 12.7 mph 24.2 mph N/A   Scattered Clouds
1:53 PM 59.0 °F - 28.0 °F 31% 30.28 in 10.0 mi North 17.3 mph - N/A   Scattered Clouds
3:00 PM 55.9 °F - 32.0 °F 40% 30.29 in 10.0 mi WNW 12.7 mph 23.0 mph N/A   Overcast
3:53 PM 60.1 °F - 24.1 °F 25% 30.23 in 10.0 mi NNW 17.3 mph 28.8 mph N/A   Partly Cloudy
4:53 PM 60.1 °F - 25.0 °F 26% 30.22 in 10.0 mi NNW 13.8 mph - N/A   Scattered Clouds
5:27 PM 60.1 °F - 26.1 °F 27% 30.24 in 10.0 mi North 18.4 mph 21.9 mph N/A   Scattered Clouds
5:53 PM 60.1 °F - 25.0 °F 26% 30.22 in 10.0 mi North 13.8 mph 23.0 mph N/A   Clear
6:53 PM 55.0 °F - 28.9 °F 37% 30.24 in 10.0 mi NNE 25.3 mph 42.6 mph N/A   Mostly Cloudy
7:53 PM 46.9 °F - 34.0 °F 61% 30.27 in 10.0 mi NE 13.8 mph - N/A   Clear
8:53 PM 45.0 °F 42.6 °F 35.1 °F 68% 30.27 in 10.0 mi NE 4.6 mph - N/A   Overcast
9:53 PM 42.1 °F 39.2 °F 35.1 °F 76% 30.27 in 10.0 mi SW 4.6 mph - N/A   Partly Cloudy
10:53 PM 39.9 °F 35.1 °F 35.1 °F 83% 30.28 in 10.0 mi West 6.9 mph - N/A   Scattered Clouds
11:53 PM 39.9 °F 35.8 °F 35.1 °F 83% 30.27 in 10.0 mi NW 5.8 mph - N/A   Clear